ITY737 EDDM-LIRP

Flight info

Callsign ITY737
Flight time 0h 51m
Altitude 33000
Route TURBU6E TURBU Y107 TOBSO DCT BAKOR DCT GAVRA DCT KUGIX Y662 AKUTO L12 MAREL
Aircraft A320/M-SDE3FGHIRWY/LB1

Departure

Time 2026-05-08 18:15
Airport Munich Airport (EDDM)

Arrival

Time 2026-05-08 19:07
Airport Pisa International Airport (LIRP)
Time Latitude Longitude Altitude Speed Heading
2026-05-08 17:47 48.35423 11.80022 1486 ft 0 kts 263°
2026-05-08 18:04 48.35425 11.80052 1475 ft 4 kts 263°
2026-05-08 18:04 48.35428 11.80085 1476 ft 4 kts 254°
2026-05-08 18:04 48.35440 11.80104 1474 ft 4 kts 178°
2026-05-08 18:04 48.35463 11.80101 1476 ft 2 kts 173°
2026-05-08 18:05 48.35465 11.80101 1476 ft 0 kts 173°
2026-05-08 18:07 48.35452 11.80103 1473 ft 3 kts 173°
2026-05-08 18:08 48.35422 11.80108 1478 ft 6 kts 173°
2026-05-08 18:08 48.35356 11.80127 1475 ft 12 kts 172°
2026-05-08 18:08 48.35255 11.80144 1475 ft 17 kts 174°
2026-05-08 18:08 48.35167 11.80121 1481 ft 12 kts 238°
2026-05-08 18:09 48.35154 11.80007 1479 ft 10 kts 263°
2026-05-08 18:09 48.35146 11.79897 1485 ft 13 kts 264°
2026-05-08 18:09 48.35131 11.79712 1485 ft 22 kts 256°
2026-05-08 18:09 48.35023 11.79559 1485 ft 23 kts 198°
2026-05-08 18:10 48.34866 11.79556 1475 ft 19 kts 173°
2026-05-08 18:10 48.34785 11.79473 1477 ft 16 kts 263°
2026-05-08 18:10 48.34774 11.79323 1480 ft 13 kts 264°
2026-05-08 18:10 48.34764 11.79193 1485 ft 12 kts 264°
2026-05-08 18:11 48.34755 11.79076 1485 ft 12 kts 263°
2026-05-08 18:11 48.34743 11.78930 1485 ft 17 kts 263°
2026-05-08 18:11 48.34728 11.78726 1485 ft 22 kts 264°
2026-05-08 18:11 48.34708 11.78469 1479 ft 27 kts 263°
2026-05-08 18:12 48.34687 11.78194 1485 ft 28 kts 264°
2026-05-08 18:12 48.34662 11.77887 1483 ft 30 kts 263°
2026-05-08 18:12 48.34638 11.77576 1485 ft 31 kts 263°
2026-05-08 18:12 48.34614 11.77253 1485 ft 31 kts 264°
2026-05-08 18:13 48.34588 11.76920 1485 ft 32 kts 263°
2026-05-08 18:13 48.34563 11.76592 1482 ft 32 kts 263°
2026-05-08 18:13 48.34537 11.76250 1479 ft 33 kts 263°
2026-05-08 18:13 48.34511 11.75917 1481 ft 27 kts 263°
2026-05-08 18:14 48.34421 11.75790 1481 ft 21 kts 163°
2026-05-08 18:14 48.34329 11.75961 1478 ft 25 kts 112°
2026-05-08 18:14 48.34240 11.76275 1485 ft 39 kts 113°
2026-05-08 18:14 48.34189 11.76698 1485 ft 47 kts 83°
2026-05-08 18:15 48.34254 11.77520 1485 ft 113 kts 83°
2026-05-08 18:15 48.34373 11.78979 1499 ft 165 kts 82°
2026-05-08 18:15 48.34502 11.80707 2153 ft 163 kts 82°
2026-05-08 18:15 48.34625 11.82414 2829 ft 168 kts 82°
2026-05-08 18:16 48.34762 11.84261 3150 ft 187 kts 82°
2026-05-08 18:16 48.34917 11.86265 3467 ft 205 kts 83°
2026-05-08 18:16 48.35096 11.88542 3723 ft 231 kts 83°
2026-05-08 18:16 48.35290 11.90975 4452 ft 237 kts 83°
2026-05-08 18:17 48.35447 11.93454 5236 ft 241 kts 92°
2026-05-08 18:17 48.34974 11.95870 5954 ft 247 kts 124°
2026-05-08 18:17 48.33748 11.97684 6689 ft 250 kts 144°
2026-05-08 18:17 48.32350 11.99267 7447 ft 254 kts 144°
2026-05-08 18:18 48.30937 12.00907 8179 ft 259 kts 146°
2026-05-08 18:18 48.29338 12.02175 8902 ft 262 kts 164°
2026-05-08 18:18 48.27515 12.02614 9341 ft 275 kts 185°
2026-05-08 18:18 48.25564 12.02427 9947 ft 284 kts 187°
2026-05-08 18:19 48.23550 12.02205 10371 ft 301 kts 187°
2026-05-08 18:19 48.21377 12.01954 10567 ft 325 kts 187°
2026-05-08 18:19 48.19047 12.01689 10708 ft 348 kts 187°
2026-05-08 18:19 48.16568 12.01415 10975 ft 364 kts 186°
2026-05-08 18:20 48.14011 12.01143 11568 ft 370 kts 186°
2026-05-08 18:20 48.11434 12.00876 12217 ft 374 kts 186°
2026-05-08 18:20 48.08824 12.00607 12868 ft 378 kts 186°
2026-05-08 18:20 48.06192 12.00334 13514 ft 381 kts 186°
2026-05-08 18:21 48.03534 12.00063 14136 ft 384 kts 186°
2026-05-08 18:21 48.00857 11.99792 14704 ft 387 kts 185°
2026-05-08 18:21 47.98151 11.99521 15285 ft 390 kts 185°
2026-05-08 18:21 47.95433 11.99256 15861 ft 394 kts 185°
2026-05-08 18:22 47.92691 11.98988 16428 ft 397 kts 185°
2026-05-08 18:22 47.89926 11.98714 16996 ft 400 kts 185°
2026-05-08 18:22 47.87134 11.98435 17560 ft 403 kts 185°
2026-05-08 18:22 47.84321 11.98155 18109 ft 406 kts 185°
2026-05-08 18:23 47.81489 11.97873 18612 ft 409 kts 185°
2026-05-08 18:23 47.78637 11.97591 19063 ft 412 kts 185°
2026-05-08 18:23 47.75772 11.97310 19520 ft 414 kts 185°
2026-05-08 18:23 47.72885 11.97023 19978 ft 417 kts 185°
2026-05-08 18:24 47.69984 11.96732 20434 ft 419 kts 185°
2026-05-08 18:24 47.67067 11.96439 20876 ft 421 kts 185°
2026-05-08 18:24 47.64138 11.96141 21301 ft 423 kts 186°
2026-05-08 18:24 47.61198 11.95840 21710 ft 425 kts 186°
2026-05-08 18:25 47.58234 11.95535 22091 ft 428 kts 186°
2026-05-08 18:25 47.55259 11.95234 22469 ft 430 kts 186°
2026-05-08 18:25 47.52255 11.94933 22833 ft 433 kts 186°
2026-05-08 18:25 47.49249 11.94633 23194 ft 435 kts 186°
2026-05-08 18:26 47.46219 11.94330 23568 ft 437 kts 186°
2026-05-08 18:26 47.43174 11.94025 23881 ft 439 kts 186°
2026-05-08 18:26 47.40135 11.93610 24200 ft 439 kts 188°
2026-05-08 18:26 47.37101 11.93048 24494 ft 441 kts 189°
2026-05-08 18:27 47.34056 11.92387 24784 ft 442 kts 190°
2026-05-08 18:27 47.32000 11.91919 24987 ft 443 kts 191°
2026-05-08 18:27 47.27954 11.91001 25378 ft 445 kts 190°
2026-05-08 18:27 47.24893 11.90345 25676 ft 446 kts 190°
2026-05-08 18:28 47.21816 11.89716 25969 ft 447 kts 189°
2026-05-08 18:28 47.18730 11.89109 26233 ft 448 kts 189°
2026-05-08 18:28 47.15640 11.88510 26478 ft 449 kts 189°
2026-05-08 18:28 47.12542 11.87907 26714 ft 450 kts 189°
2026-05-08 18:29 47.09430 11.87300 26982 ft 451 kts 189°
2026-05-08 18:29 47.06325 11.86694 27335 ft 450 kts 189°
2026-05-08 18:29 47.03230 11.86087 27722 ft 447 kts 190°
2026-05-08 18:29 47.00157 11.85425 28066 ft 445 kts 192°
2026-05-08 18:30 46.97125 11.84588 28455 ft 442 kts 194°
2026-05-08 18:30 46.94133 11.83621 28838 ft 439 kts 195°
2026-05-08 18:30 46.91162 11.82590 29185 ft 437 kts 195°
2026-05-08 18:30 46.88208 11.81559 29545 ft 435 kts 195°
2026-05-08 18:31 46.85269 11.80559 29860 ft 434 kts 195°
2026-05-08 18:31 46.82325 11.79590 30232 ft 432 kts 195°
2026-05-08 18:31 46.79391 11.78654 30542 ft 431 kts 194°
2026-05-08 18:31 46.76464 11.77739 30800 ft 430 kts 194°
2026-05-08 18:32 46.73529 11.76828 31002 ft 432 kts 194°
2026-05-08 18:32 46.70593 11.75920 31231 ft 433 kts 194°
2026-05-08 18:32 46.67640 11.75002 31495 ft 433 kts 195°
2026-05-08 18:32 46.64703 11.74082 31774 ft 433 kts 195°
2026-05-08 18:33 46.61747 11.73216 32057 ft 434 kts 191°
2026-05-08 18:33 46.58726 11.72921 32285 ft 438 kts 182°
2026-05-08 18:33 46.55681 11.73023 32508 ft 439 kts 182°
2026-05-08 18:33 46.52623 11.73134 32714 ft 440 kts 182°
2026-05-08 18:34 46.49562 11.73249 32937 ft 441 kts 182°
2026-05-08 18:34 46.46494 11.73365 33169 ft 441 kts 182°
2026-05-08 18:34 46.44420 11.73443 33351 ft 441 kts 182°
2026-05-08 18:34 46.40355 11.73592 33723 ft 441 kts 182°
2026-05-08 18:35 46.37284 11.73699 33975 ft 442 kts 183°
2026-05-08 18:35 46.35208 11.73772 34105 ft 442 kts 183°
2026-05-08 18:35 46.32123 11.73879 34255 ft 445 kts 183°
2026-05-08 18:35 46.29024 11.73987 34430 ft 446 kts 183°
2026-05-08 18:36 46.25917 11.74097 34634 ft 446 kts 183°
2026-05-08 18:36 46.22856 11.74207 34839 ft 446 kts 183°
2026-05-08 18:36 46.19713 11.74320 35006 ft 447 kts 183°
2026-05-08 18:36 46.16596 11.74431 35054 ft 450 kts 183°
2026-05-08 18:37 46.10350 11.74645 35052 ft 452 kts 183°
2026-05-08 18:37 46.04055 11.74857 35056 ft 453 kts 183°
2026-05-08 18:38 45.97756 11.75082 35051 ft 453 kts 183°
2026-05-08 18:38 45.91442 11.75306 35046 ft 455 kts 183°
2026-05-08 18:39 45.85106 11.75526 35048 ft 456 kts 183°
2026-05-08 18:39 45.78772 11.75748 35046 ft 456 kts 183°
2026-05-08 18:40 45.72428 11.75970 35034 ft 456 kts 184°
2026-05-08 18:40 45.66071 11.76195 35026 ft 457 kts 184°
2026-05-08 18:41 45.59710 11.76408 35034 ft 458 kts 184°
2026-05-08 18:41 45.53339 11.76624 35021 ft 458 kts 184°
2026-05-08 18:42 45.46976 11.76845 35030 ft 458 kts 184°
2026-05-08 18:42 45.40608 11.77065 35042 ft 458 kts 184°
2026-05-08 18:43 45.34245 11.77281 35035 ft 458 kts 184°
2026-05-08 18:43 45.27870 11.77498 35035 ft 458 kts 184°
2026-05-08 18:44 45.21489 11.77712 35037 ft 459 kts 184°
2026-05-08 18:44 45.15102 11.77931 35016 ft 459 kts 185°
2026-05-08 18:45 45.08707 11.78150 35025 ft 460 kts 185°
2026-05-08 18:45 45.02304 11.78362 35028 ft 461 kts 185°
2026-05-08 18:46 44.95889 11.78575 35007 ft 461 kts 185°
2026-05-08 18:46 44.89464 11.78783 35014 ft 462 kts 185°
2026-05-08 18:47 44.83029 11.79000 35020 ft 462 kts 185°
2026-05-08 18:47 44.79823 11.79113 34535 ft 461 kts 186°
2026-05-08 18:47 44.76609 11.79224 33652 ft 463 kts 186°
2026-05-08 18:48 44.73385 11.79330 32711 ft 465 kts 186°
2026-05-08 18:48 44.70141 11.79436 31795 ft 467 kts 185°
2026-05-08 18:48 44.66938 11.79538 30921 ft 467 kts 184°
2026-05-08 18:48 44.63690 11.79643 30074 ft 466 kts 184°
2026-05-08 18:49 44.60447 11.79753 29164 ft 466 kts 183°
2026-05-08 18:49 44.57198 11.79865 28315 ft 467 kts 184°
2026-05-08 18:49 44.53956 11.79978 27508 ft 465 kts 183°
2026-05-08 18:49 44.50736 11.80090 26745 ft 460 kts 183°
2026-05-08 18:50 44.47551 11.80197 26153 ft 455 kts 182°
2026-05-08 18:50 44.44409 11.80302 25658 ft 450 kts 182°
2026-05-08 18:50 44.41291 11.80405 25179 ft 446 kts 182°
2026-05-08 18:50 44.38208 11.80502 24694 ft 441 kts 182°
2026-05-08 18:51 44.35148 11.80599 24221 ft 438 kts 181°
2026-05-08 18:51 44.32117 11.80695 23760 ft 434 kts 181°
2026-05-08 18:51 44.29143 11.80333 23156 ft 425 kts 195°
2026-05-08 18:51 44.26406 11.78918 22488 ft 417 kts 211°
2026-05-08 18:52 44.24080 11.76571 21827 ft 410 kts 225°
2026-05-08 18:52 44.22303 11.73513 21172 ft 405 kts 240°
2026-05-08 18:52 44.21171 11.69961 20548 ft 400 kts 253°
2026-05-08 18:52 44.20412 11.66243 19934 ft 398 kts 255°
2026-05-08 18:53 44.19660 11.62544 19330 ft 396 kts 255°
2026-05-08 18:53 44.18895 11.58871 18730 ft 394 kts 252°
2026-05-08 18:53 44.17881 11.55334 18104 ft 393 kts 248°
2026-05-08 18:53 44.16822 11.51828 17517 ft 391 kts 248°
2026-05-08 18:54 44.15779 11.48362 17244 ft 387 kts 248°
2026-05-08 18:54 44.14750 11.44938 16900 ft 380 kts 248°
2026-05-08 18:54 44.13730 11.41555 16409 ft 376 kts 248°
2026-05-08 18:54 44.12723 11.38216 15916 ft 373 kts 248°
2026-05-08 18:55 44.10724 11.31613 14911 ft 368 kts 248°
2026-05-08 18:55 44.09732 11.28344 14381 ft 367 kts 248°
2026-05-08 18:55 44.08741 11.25085 13854 ft 366 kts 248°
2026-05-08 18:56 44.07751 11.21829 13271 ft 364 kts 248°
2026-05-08 18:56 44.06779 11.18636 12714 ft 362 kts 248°
2026-05-08 18:56 44.05801 11.15424 12165 ft 360 kts 247°
2026-05-08 18:56 44.04830 11.12233 11583 ft 357 kts 247°
2026-05-08 18:57 44.03861 11.09069 11032 ft 355 kts 247°
2026-05-08 18:57 44.03205 11.06935 10636 ft 354 kts 247°
2026-05-08 18:57 44.01931 11.02786 9876 ft 352 kts 246°
2026-05-08 18:57 44.00975 10.99665 9244 ft 350 kts 247°
2026-05-08 18:58 44.00027 10.96576 8677 ft 347 kts 247°
2026-05-08 18:58 43.99084 10.93505 8097 ft 344 kts 247°
2026-05-08 18:58 43.98156 10.90485 7798 ft 333 kts 247°
2026-05-08 18:58 43.97267 10.87600 7679 ft 318 kts 247°
2026-05-08 18:59 43.96415 10.84842 7553 ft 304 kts 247°
2026-05-08 18:59 43.95598 10.82206 7426 ft 291 kts 247°
2026-05-08 18:59 43.94814 10.79685 7296 ft 279 kts 247°
2026-05-08 18:59 43.94062 10.77267 7034 ft 272 kts 247°
2026-05-08 19:00 43.93299 10.74810 6308 ft 279 kts 247°
2026-05-08 19:00 43.92532 10.72332 5550 ft 279 kts 247°
2026-05-08 19:00 43.91769 10.69862 4859 ft 277 kts 247°
2026-05-08 19:00 43.91027 10.67464 4573 ft 265 kts 247°
2026-05-08 19:01 43.90308 10.65149 4317 ft 258 kts 247°
2026-05-08 19:01 43.89607 10.62895 4064 ft 251 kts 246°
2026-05-08 19:01 43.88924 10.60705 3818 ft 244 kts 246°
2026-05-08 19:01 43.88260 10.58580 3652 ft 235 kts 246°
2026-05-08 19:02 43.87568 10.56573 3620 ft 230 kts 237°
2026-05-08 19:02 43.86594 10.54824 3626 ft 229 kts 230°
2026-05-08 19:02 43.85586 10.53112 3628 ft 229 kts 231°
2026-05-08 19:02 43.84578 10.51400 3628 ft 228 kts 231°
2026-05-08 19:03 43.83496 10.49908 3609 ft 213 kts 213°
2026-05-08 19:03 43.82193 10.48968 3311 ft 211 kts 204°
2026-05-08 19:03 43.80863 10.48131 2926 ft 209 kts 204°
2026-05-08 19:03 43.79572 10.47318 2577 ft 198 kts 204°
2026-05-08 19:04 43.78354 10.46550 2281 ft 188 kts 204°
2026-05-08 19:04 43.77200 10.45824 1995 ft 176 kts 204°
2026-05-08 19:04 43.76136 10.45155 1750 ft 161 kts 204°
2026-05-08 19:04 43.75151 10.44535 1505 ft 152 kts 204°
2026-05-08 19:05 43.74202 10.43939 1267 ft 149 kts 203°
2026-05-08 19:05 43.73262 10.43349 1044 ft 147 kts 204°
2026-05-08 19:05 43.72333 10.42769 824 ft 146 kts 204°
2026-05-08 19:05 43.71404 10.42193 631 ft 146 kts 205°
2026-05-08 19:06 43.70496 10.41564 396 ft 145 kts 212°
2026-05-08 19:06 43.69670 10.40766 157 ft 145 kts 218°
2026-05-08 19:06 43.68872 10.39931 10 ft 136 kts 217°
2026-05-08 19:06 43.68245 10.39282 9 ft 88 kts 216°
2026-05-08 19:07 43.67900 10.38926 7 ft 42 kts 217°
2026-05-08 19:07 43.67673 10.38692 10 ft 36 kts 217°
2026-05-08 19:07 43.67552 10.38563 10 ft 13 kts 231°
2026-05-08 19:07 43.67570 10.38457 10 ft 12 kts 307°
2026-05-08 19:08 43.67628 10.38360 8 ft 15 kts 324°
2026-05-08 19:08 43.67716 10.38410 9 ft 15 kts 37°
2026-05-08 19:08 43.67896 10.38592 8 ft 19 kts 36°
2026-05-08 19:09 43.68005 10.38708 7 ft 21 kts 37°
2026-05-08 19:09 43.68130 10.38836 7 ft 23 kts 36°
2026-05-08 19:09 43.68263 10.38972 6 ft 25 kts 36°
2026-05-08 19:09 43.68402 10.39112 8 ft 25 kts 37°
2026-05-08 19:10 43.68542 10.39261 9 ft 26 kts 38°
2026-05-08 19:10 43.68687 10.39416 8 ft 27 kts 37°
2026-05-08 19:10 43.68842 10.39575 7 ft 28 kts 36°
2026-05-08 19:10 43.69002 10.39737 8 ft 29 kts 36°
2026-05-08 19:11 43.69144 10.39880 10 ft 20 kts 36°
2026-05-08 19:11 43.69259 10.39913 11 ft 18 kts 354°
2026-05-08 19:11 43.69385 10.39893 11 ft 18 kts 353°
2026-05-08 19:11 43.69466 10.39842 11 ft 13 kts 288°
2026-05-08 19:12 43.69530 10.39772 11 ft 14 kts
2026-05-08 19:12 43.69632 10.39796 11 ft 16 kts
2026-05-08 19:12 43.69698 10.39832 12 ft 10 kts 61°
2026-05-08 19:12 43.69695 10.39916 11 ft 8 kts 99°
2026-05-08 19:13 43.69711 10.39963 12 ft 5 kts 18°
2026-05-08 19:13 43.69741 10.39971 11 ft 4 kts
2026-05-08 19:13 43.69757 10.39974 11 ft 0 kts